Powrót do katalogu

STARLINK-36179

AktywnyŁącznośćVLEO
NORAD 67119·PAYLOAD·🇺🇸 United States

Wystrzelony Dec 15, 2025 z Cape Canaveral Space Force Station

Loading…

Następne Przeloty (najbliższe 24 godziny)

TLE

ŚwieżeSource: CelesTrak SupGP

Epoka: Sep 15, 2026, 03:52 UTC

1 67119C 25299T   26258.16159722  .00020399  00000+0  73894-3 0  2581
2 67119  43.0026 178.8814 0001343 273.7402 113.5337 15.27564890    15

Śledź STARLINK-36179 w czasie rzeczywistym z AllMySat

Download on the App Store